Location: Casilda
(33.0440°S, 61.1680°W)
Time: 00:30:45
(UTC-03:00)

ISS - Pass Details

Date: 20 October 2018
Orbit: 403 x 408 km, 51.6° (Epoch: 21 October)

Event Time Altitude Azimuth Distance (km) Brightness Sun altitude
Exits shadow 05:14:09 20° 254° (WSW) 1,017 -2.3 -13.6°
Maximum altitude 05:15:59 38° 311° (NW) 644 -3.3 -13.2°
Drops below altitude 10° 05:19:03 10° 21° (NNE) 1,459 -1.0 -12.6°
Sets 05:21:12 0° 29° (NNE) 2,311 0.1 -12.2°
